Weather Roundup
Issued by NWS Chicago, IL

Home | Current Version | Previous Version | Text Only | Print | Product List | Glossary On
Versions: 1 2 3 4 5 6 7 8 9 10 11 12 13 14 15 16 17 18 19 20 21 22 23 24 25 26 27 28 29 30 31 32 33 34 35 36 37 38 39 40 41 42 43 44 45 46 47 48 49 50
000
NZUS59 KLOT 131508
HRRLOT

CHICAGO AREA WEATHER ROUNDUP
NATIONAL WEATHER SERVICE CHICAGO/ROMEOVILLE IL
900 AM CST WED DEC 13 2017

NOTE: "FAIR" INDICATES FEW OR NO CLOUDS BELOW 12,000 FEET WITH NO
SIGNIFICANT WEATHER AND/OR OBSTRUCTIONS TO VISIBILITY.

* THESE STATIONS ARE NOT UNDER NWS QUALITY CONTROL. THEY ALSO MAY NOT
  REPORT WEATHER SUCH AS PRECIPITATION OR FOG.

ILZ005-006-012>014-019>023-131600-
NORTHEAST ILLINOIS

CITY           SKY/WX    TMP DP  RH WIND       PRES   REMARKS
OHARE          CLOUDY    29  16  58 S22       29.46F WCI  15
MIDWAY         CLOUDY    30  14  51 S17G29    29.49F WCI  18
AURORA         CLOUDY    28  17  63 S20G26    29.48F WCI  15
LANSING*       CLOUDY    28  14  56 S15G25    29.54F WCI  16
JOLIET*        CLOUDY    32  17  54 S13G23    29.49F WCI  22
WAUKEGAN       CLOUDY    29  18  63 S15       29.43F WCI  18
DUPAGE AIRPORT CLOUDY    28  18  66 S14G26    29.45F WCI  17
WHEELING       CLOUDY    30  17  58 S18       29.47F WCI  18
KANKAKEE*      CLOUDY    30  13  48 S17       29.55F WCI  18
MORRIS*        CLOUDY    30  17  58 S20       29.49F WCI  18
LEWIS AIRPORT* CLOUDY    29  17  59 S23G29    29.48F WCI  15
NORTHERLY ISL    N/A     29  13  51 S12         N/A  WCI  19
$$

WIZ051-052-058>065-066-070>072-131600-
SOUTHEAST WISCONSIN

CITY           SKY/WX    TMP DP  RH WIND       PRES   REMARKS
MILWAUKEE      CLOUDY    29  18  63 SE15      29.41F WCI  18
KENOSHA*       CLOUDY    30  17  58 S17G24    29.42F WCI  18
RACINE*        CLOUDY    30  20  66 S16G30    29.45F WCI  19
BURLINGTON       N/A    N/A N/A N/A MISG        N/A
WAUKESHA       CLOUDY    23  16  74 SE14      29.41F WCI  11
WEST BEND      CLOUDY    25  19  80 SE5       29.42F WCI  19
$$

INZ001>003-010>013-019-020-131600-
NORTHWEST INDIANA

CITY           SKY/WX    TMP DP  RH WIND       PRES   REMARKS
GARY*          CLOUDY    28   9  43 S12G23    29.56F WCI  18
MICHIGAN CITY* NOT AVBL
RENSSELAER*    NOT AVBL
VALPARAISO     CLOUDY    27  12  53 S14G24    29.58F WCI  16
$$

LMZ740>746-131600-
SOUTHERN LAKE MICHIGAN

STATION/POSITION TIME  SKY/WX   TEMP WIND        PRES    VSBY
                                AIR  DIR/SP/G
                 (UTC)          (F)  (DEG/KT/KT) (MB)    (MI)
HARRISON CRIB    1440            30  180/ 32/ 35   N/A
BURNHAM HARBOR   1500            29  160/ 14/ 18   N/A
CALUMET HARBOR   1448            28  160/ 15/ 22  999.2F
BURNS HARBOR     1440            27  170/ 12/ 21 1002.0F
MICHIGAN CITY    1440            25  150/ 17/ 21   N/A
$$

ABBREVIATIONS USED IN REMARKS
   TC - TEMPERATURE IN CELSIUS
  WCI - WIND CHILL INDEX
   HX - HEAT INDEX
  VSB - VISIBILITY
$$




USA.gov is the U.S. government's official web portal to all federal, state and local government web resources and services.